AirNav   Phillips 66 Aviation Fuel
 
 903 users online  

89Y Maidens Airport
Williamston, Michigan, USA

GOING TO WILLIAMSTON?


FAA INFORMATION EFFECTIVE 08 NOVEMBER 2018

Location

FAA Identifier: 89Y
Lat/Long: 42-44-01.9000N / 084-19-19.6000W
42-44.031667N / 084-19.326667W
42.7338611 / -84.3221111
(estimated)
Elevation: 920 ft. / 280 m (estimated)
Variation: 05W (1985)
From city: 3 miles NW of WILLIAMSTON, MI
Time zone: UTC -5 (UTC -4 during Daylight Saving Time)
Zip code: 48895

Airport Operations

Airport use: Open to the public
Activation date: 07/1995
Control tower: no
ARTCC: CLEVELAND CENTER
FSS: LANSING FLIGHT SERVICE STATION
NOTAMs facility: LAN (NOTAM-D service available)
Attendance: UNATNDD
Wind indicator: yes
Segmented circle: no

Airport Communications

CTAF: 122.9
WX AWOS-3 at TEW (11 nm SW): 119.425 (517-676-5607)
WX ASOS at LAN (12 nm W): 119.75 (517-908-8494)
WX AWOS-3 at OZW (16 nm SE): 118.875 (517-546-4450)
WX AWOS-3 at RNP (18 nm NE): 118.025 (989-729-2967)

Nearby radio navigation aids

VOR radial/distance  VOR name  Freq  Var
FNTr247/28.9FLINT VORTAC116.9006W
JXNr017/29.1JACKSON VOR/DME109.6005W
SVMr304/37.6SALEM VORTAC114.3003W

Airport Services

Runway Information

Runway 9/27

Dimensions: 2435 x 100 ft. / 742 x 30 m
RY 09/27 SLOPES DOWN TO THE W.
Surface: turf, in fair condition
Runway edge markings: 09/27 THLDS & DSPLCD THLDS MKD WITH THREE 3 FT YELLOW CONES EACH SIDE.
RUNWAY 9  RUNWAY 27
Latitude: 42-44.033333N42-44.030000N
Longitude: 084-19.598333W084-19.055000W
Elevation: 895.0 ft.916.0 ft.
Gradient: 0.9% UP
Traffic pattern: leftleft
Runway heading: 095 magnetic, 090 true275 magnetic, 270 true
Obstructions: 35 ft. trees, 129 ft. from runway, 75 ft. left of centerline, 3:1 slope to clear35 ft. pline, marked
APCH RATIO 20:1 AT DSPLCD THLD; 63 FT TREES, 1260 FT DSTC, 0B.

Airport Ownership and Management from official FAA records

Ownership: Privately-owned
Owner: JOHN C. MAIDENS
5155 N ZIMMER RD
WILLIAMSTON, MI 48895
Phone 517-655-2453
OWNER LIVES ON PREMISES.
Manager: JOHN C. MAIDENS
5155 N ZIMMER RD
WILLIAMSTON, MI 48895
Phone 517-655-2453

Airport Operational Statistics

Aircraft based on the field: 1
Single engine airplanes: 1
    
Aircraft operations: avg 23/month *
73% transient general aviation
27% local general aviation
* for 12-month period ending 31 December 2014

Additional Remarks

RY 09 APCH MAY BE OBSTRUCTED BY SEASONAL +8 FT CROPS

Instrument Procedures

There are no published instrument procedures at 89Y.

Some nearby airports with instrument procedures:

KTEW - Mason Jewett Field Airport (11 nm SW)
KLAN - Capital Region International Airport (12 nm W)
KOZW - Livingston County Spencer J Hardy Airport (16 nm SE)
KRNP - Owosso Community Airport (18 nm NE)
4D0 - Abrams Municipal Airport (18 nm W)
 
Loc | Ops | Rwys | IFR | FBO | Links
Com | Nav | Svcs | Stats | Notes


 
Area around 89Y (Maidens Airport)
 
Road maps at: MapQuest Bing Google
 
Aerial photo
No photo
 
Sectional chart

 
Airport distance calculator
Flying to Maidens Airport? Find the distance to fly.

From to 89Y

Sunrise and sunset
Times for 18-Nov-2018
 Local
(UTC-5)
 Zulu
(UTC)
Morning civil twilight07:0312:03
Sunrise07:3412:34
Sunset17:1122:11
Evening civil twilight17:4222:42

Current date and time
Zulu (UTC)  19-Nov-2018 02:10:20
Local (UTC-5)  18-Nov-2018 21:10:20
 
METAR
KTEW 
11nm SW 
190155Z AUTO 00000KT 10SM CLR 00/M02 A3016 RMK AO2 T00001023
KLAN 
12nm W 
190153Z 24004KT 10SM CLR M01/M03 A3016 RMK AO2 SLP224 T10061033
KOZW 
17nm SE 
190155Z AUTO 21003KT 10SM CLR M01/M02 A3015 RMK AO2 T10091019
KRNP 
18nm NE 
190155Z AUTO 25005KT 10SM CLR 00/M03 A3015 RMK AO2 T10011032
TAF
KLAN 
12nm W 
190025Z 1900/1924 22004KT P6SM BKN025 FM190200 22004KT P6SM FEW035 FM191100 19004KT P6SM BKN030 FM191400 20008KT P6SM BKN090
NOTAMs
Click for the latest NOTAMs
NOTAMs are issued by the DoD/FAA and will open in a separate window not controlled by AirNav.

 

 
 

Would you like to see your business listed on this page?

 If your business provides an interesting product or service to pilots, flight crews, aircraft, or users of the Maidens Airport, you should consider listing it here.  To start the listing process, click on the button below
 
Add a business
 

Other Pages about Maidens Airport

Page from the Michigan Airport Directory (PDF)
 
Update a link
 
Copyright © AirNav, LLC. All rights reserved. Privacy Policy  Contact